ATLAS 5 CENTAUR DEB, 46857

Orbit data source: Space-Track

ATLAS 5 CENTAUR DEB, 46857 is space debris in HEO originally from a launch on Wed, 17 Oct 2018 UTC launched from the Air Force Eastern Test Range (AFETR). Debris objects in space refer to the collection of defunct objects orbiting the Earth. Examples of debris include non-operational satellites, rocket bodies, and fragments generated from explosions, collisions, or faulty payload assembly.

Loading next visibility...
Identifier
46857, 2018-079DN
Orbit
HEO
Country
Flag of USUS
Related business
Flag of USUnited Launch Alliance/Lockheed Martin (US)
Manufacturer
ULA Decatur
Mission
Spacecraft
Bus & Motor
Unknown
Mass
Unknown
Launch date (UTC)
2018-10-17 (8 years ago)
Launch vehicle
Unknown
Launch site
Air Force Eastern Test Range (AFETR)
Object type
Payload
Rocket body
Debris
Shape & HBR
Unknown shape, 1.1 m
Radar Cross Section
RCS unknown

Expand to show TLE details & history
Last TLE update: 1 day ago

TLE from 1 day ago
0 ATLAS 5 CENTAUR DEB
1 46857U 18079DN  26255.02162800 -.00000131  00000-0  00000-0 0  9990
2 46857  12.7367  68.1129 4611955 248.3983  57.4193  1.69096180 36191
Epoch: 2026-09-12T00:31Z
TLE epoch observation values (Epoch: 2026-09-12T00:31:08.659Z)
Latitude
-0.00001°
Longitude
69.38139°
Altitude
21,818.06 km
Speed
3.857 km/s
True Right ascension
04h 32m 48s
True Declination
0° 00' 00"
Sunlit
Object was in daylight at epoch
Visualization orbit readout
Latitude
Unknown
Longitude
Unknown
Altitude
Unknown
Speed
Unknown
Apparent Right ascension
Unknown
Apparent Declination
Unknown
Sunlit
N/A
Visualization observer readout
Local Sidereal Time
17:13:44
Azimuth
Unknown
Elevation
Unknown
Doppler factor
Unknown
Orbital elements
Apogee altitude
37,111.244 km
Perigee altitude
9,658.235 km
Semi-major axis
29,762.877 km
Eccentricity
0.4612
Inclination
12.7367°
RAAN
68.1129°
Arg. of periapsis
248.3983°
True anomaly
111.71225°
Mean anomaly
57.4193°
Eccentric anomaly
83.68344°
Mean motion
0.4227 °/min
Orbital period
851.67 mins
BSTAR
0
Loading maneuver chart data...
Computing Atmospheric mass density...

Documentation

Showing up to 5 results
|